GPS BIIF-8

Last updated on Tue Sep 22 2026 00:03:02 GMT+0000 (Coordinated Universal Time)

1 40294U 14068A 26264.15174215 -.00000068 00000+0 00000+0 0 9997 2 40294 57.0496 27.2666 0066944 73.8998 286.8440 2.00557557 87131
UTC large
Height (km)
Speed (km/s)
/
Latitude / Longitude
Inclination (degrees)
Orbital Period (minutes)
Azimuth
Elevation
Range (km)
Doppler Factor

Next 0 passes for location: London (51.5072 / 0.1276)

No passes found over London.
GPS BIIF-8